• In Hungary
  • List of Countries
  • For 7 days
  • Water Temperature
  • Satellite Maps
  • Weather Map
  • News
  • Weather Widgets
  • user-avatar
    Login

    Hourly Weather Selnikovo

    Today, 23 June, Saturday

    Time Temperature Precipitation Wind Pressure Humidity
    00:00 +14°C° 0 mm 2 mps 744 mmHg 95%
    01:00 +13°C° 0 mm 2 mps 744 mmHg 95%
    02:00 +12°C° 0 mm 1 mps 745 mmHg 95%
    03:00 +13°C° 0 mm 1 mps 745 mmHg 93%
    04:00 +13°C° 0 mm 2 mps 745 mmHg 91%
    05:00 +13°C° 0 mm 2 mps 746 mmHg 89%
    06:00 +15°C° 0 mm 2 mps 746 mmHg 79%
    07:00 +17°C° 0 mm 2 mps 746 mmHg 70%
    08:00 +18°C° 0 mm 2 mps 746 mmHg 60%
    09:00 +19°C° 0 mm 1 mps 746 mmHg 62%
    10:00 +19°C° 0 mm 1 mps 746 mmHg 63%
    11:00 +19°C° 0 mm 1 mps 746 mmHg 65%
    12:00 +19°C° 0.1 mm 1 mps 746 mmHg 66%
    13:00 +18°C° 0.1 mm 2 mps 745 mmHg 67%
    14:00 +18°C° 0.1 mm 2 mps 745 mmHg 68%
    15:00 +18°C° 0.1 mm 2 mps 745 mmHg 69%
    16:00 +18°C° 0.1 mm 3 mps 744 mmHg 71%
    17:00 +18°C° 0.1 mm 3 mps 744 mmHg 72%
    18:00 +17°C° 1.3 mm 3 mps 744 mmHg 80%
    19:00 +16°C° 1.3 mm 3 mps 743 mmHg 87%
    20:00 +14°C° 1.3 mm 3 mps 743 mmHg 94%
    21:00 +14°C° 0.4 mm 3 mps 743 mmHg 95%
    22:00 +14°C° 0.4 mm 3 mps 742 mmHg 96%
    23:00 +14°C° 0.4 mm 3 mps 742 mmHg 97%

    Tomorrow, 24 June, Sunday

    Time Temperature Precipitation Wind Pressure Humidity
    00:00 +14°C° 0.1 mm 3 mps 741 mmHg 97%
    01:00 +16°C° 0.1 mm 3 mps 741 mmHg 97%
    02:00 +16°C° 0.1 mm 3 mps 741 mmHg 97%
    03:00 +17°C° 0.2 mm 3 mps 740 mmHg 96%
    04:00 +18°C° 0.2 mm 4 mps 739 mmHg 94%
    05:00 +19°C° 0.2 mm 4 mps 739 mmHg 93%
    06:00 +21°C° 0 mm 5 mps 739 mmHg 85%
    07:00 +23°C° 0 mm 5 mps 739 mmHg 77%
    08:00 +24°C° 0 mm 6 mps 739 mmHg 69%
    09:00 +24°C° 0.4 mm 6 mps 739 mmHg 72%
    10:00 +24°C° 0.4 mm 6 mps 739 mmHg 75%
    11:00 +24°C° 0.4 mm 6 mps 740 mmHg 78%
    12:00 +23°C° 0.5 mm 6 mps 740 mmHg 79%
    13:00 +22°C° 0.5 mm 5 mps 741 mmHg 80%
    14:00 +21°C° 0.5 mm 5 mps 741 mmHg 81%
    15:00 +20°C° 0 mm 5 mps 742 mmHg 78%
    16:00 +19°C° 0 mm 5 mps 742 mmHg 75%
    17:00 +17°C° 0 mm 5 mps 742 mmHg 72%
    18:00 +17°C° 0 mm 4 mps 743 mmHg 75%
    19:00 +14°C° 0 mm 3 mps 743 mmHg 77%
    20:00 +13°C° 0 mm 3 mps 744 mmHg 79%
    21:00 +12°C° 0 mm 3 mps 744 mmHg 83%
    22:00 +12°C° 0 mm 2 mps 744 mmHg 87%
    23:00 +10°C° 0 mm 2 mps 745 mmHg 90%

    Day after tomorrow, 25 June, Monday

    Time Temperature Precipitation Wind Pressure Humidity
    00:00 +9°C° 0 mm 2 mps 745 mmHg 92%
    01:00 +9°C° 0 mm 2 mps 746 mmHg 95%
    02:00 +8°C° 0 mm 2 mps 746 mmHg 97%
    03:00 +9°C° 0 mm 2 mps 747 mmHg 93%
    04:00 +9°C° 0 mm 2 mps 747 mmHg 90%
    05:00 +10°C° 0 mm 2 mps 747 mmHg 87%
    06:00 +13°C° 0 mm 2 mps 747 mmHg 79%
    07:00 +15°C° 0 mm 2 mps 748 mmHg 71%
    08:00 +17°C° 0 mm 2 mps 748 mmHg 63%
    09:00 +18°C° 0 mm 3 mps 748 mmHg 58%
    10:00 +20°C° 0 mm 3 mps 748 mmHg 53%
    11:00 +21°C° 0 mm 3 mps 748 mmHg 48%
    12:00 +22°C° 0 mm 3 mps 748 mmHg 48%
    13:00 +22°C° 0 mm 4 mps 748 mmHg 47%
    14:00 +23°C° 0 mm 4 mps 748 mmHg 46%
    15:00 +22°C° 0.1 mm 4 mps 748 mmHg 51%
    16:00 +22°C° 0.1 mm 3 mps 748 mmHg 55%
    17:00 +21°C° 0.1 mm 3 mps 748 mmHg 60%
    18:00 +19°C° 0 mm 3 mps 748 mmHg 67%
    19:00 +18°C° 0 mm 2 mps 748 mmHg 74%
    20:00 +16°C° 0 mm 2 mps 748 mmHg 81%
    21:00 +15°C° 0 mm 2 mps 748 mmHg 84%
    22:00 +14°C° 0 mm 2 mps 749 mmHg 87%
    23:00 +13°C° 0 mm 2 mps 749 mmHg 91%

    26 June, Tuesday

    Time Temperature Precipitation Wind Pressure Humidity
    00:00 +12°C° 0 mm 2 mps 749 mmHg 92%
    01:00 +12°C° 0 mm 2 mps 749 mmHg 94%
    02:00 +11°C° 0 mm 1 mps 749 mmHg 96%
    03:00 +12°C° 0 mm 1 mps 750 mmHg 93%
    04:00 +13°C° 0 mm 1 mps 750 mmHg 91%
    05:00 +13°C° 0 mm 1 mps 750 mmHg 89%
    06:00 +15°C° 0 mm 2 mps 750 mmHg 81%
    07:00 +17°C° 0 mm 2 mps 750 mmHg 73%
    08:00 +18°C° 0 mm 2 mps 750 mmHg 65%
    09:00 +19°C° 0.1 mm 2 mps 750 mmHg 63%
    10:00 +20°C° 0.1 mm 2 mps 750 mmHg 61%
    11:00 +21°C° 0.1 mm 3 mps 750 mmHg 59%
    12:00 +21°C° 0.5 mm 2 mps 750 mmHg 62%
    13:00 +21°C° 0.5 mm 2 mps 750 mmHg 65%
    14:00 +21°C° 0.5 mm 2 mps 750 mmHg 68%
    15:00 +20°C° 0.7 mm 2 mps 750 mmHg 72%
    16:00 +20°C° 0.7 mm 2 mps 750 mmHg 75%
    17:00 +20°C° 0.7 mm 2 mps 750 mmHg 78%
    18:00 +19°C° 0.5 mm 1 mps 750 mmHg 83%
    19:00 +18°C° 0.5 mm 1 mps 750 mmHg 87%
    20:00 +15°C° 0.5 mm 1 mps 750 mmHg 91%
    21:00 +15°C° 0 mm 1 mps 750 mmHg 92%
    22:00 +14°C° 0 mm 1 mps 750 mmHg 93%
    23:00 +12°C° 0 mm 0 mps 750 mmHg 94%

    27 June, Wednesday

    Time Temperature Precipitation Wind Pressure Humidity
    00:00 +12°C° 0 mm 0 mps 750 mmHg 94%
    01:00 +11°C° 0 mm 0 mps 751 mmHg 94%
    02:00 +11°C° 0 mm 0 mps 751 mmHg 94%
    03:00 +12°C° 0 mm 0 mps 751 mmHg 93%
    04:00 +13°C° 0 mm 0 mps 751 mmHg 92%
    05:00 +13°C° 0 mm 0 mps 751 mmHg 91%
    06:00 +16°C° 0 mm 1 mps 751 mmHg 84%
    07:00 +19°C° 0 mm 1 mps 751 mmHg 77%
    08:00 +21°C° 0 mm 1 mps 751 mmHg 70%
    09:00 +23°C° 0 mm 1 mps 751 mmHg 63%
    10:00 +24°C° 0 mm 1 mps 751 mmHg 56%
    11:00 +25°C° 0 mm 1 mps 751 mmHg 49%
    12:00 +25°C° 0.1 mm 1 mps 751 mmHg 49%
    13:00 +26°C° 0.1 mm 2 mps 750 mmHg 49%
    14:00 +26°C° 0.1 mm 2 mps 750 mmHg 49%
    15:00 +25°C° 0.1 mm 2 mps 750 mmHg 53%
    16:00 +25°C° 0.1 mm 2 mps 750 mmHg 58%
    17:00 +25°C° 0.1 mm 2 mps 750 mmHg 62%
    18:00 +23°C° 0.3 mm 2 mps 750 mmHg 70%
    19:00 +20°C° 0.3 mm 2 mps 750 mmHg 79%
    20:00 +18°C° 0.3 mm 2 mps 750 mmHg 87%
    21:00 +17°C° 0.2 mm 2 mps 750 mmHg 89%
    22:00 +16°C° 0.2 mm 2 mps 750 mmHg 91%
    23:00 +16°C° 0.2 mm 2 mps 750 mmHg 94%

    28 June, Thursday

    Time Temperature Precipitation Wind Pressure Humidity
    00:00 +15°C° 0.3 mm 2 mps 750 mmHg 94%
    01:00 +15°C° 0.3 mm 2 mps 750 mmHg 94%
    02:00 +15°C° 0.3 mm 2 mps 750 mmHg 95%
    03:00 +15°C° 0 mm 2 mps 750 mmHg 94%
    04:00 +15°C° 0 mm 2 mps 750 mmHg 93%
    05:00 +16°C° 0 mm 2 mps 750 mmHg 92%
    06:00 +18°C° 0 mm 3 mps 750 mmHg 84%
    07:00 +20°C° 0 mm 3 mps 750 mmHg 75%
    08:00 +22°C° 0 mm 3 mps 750 mmHg 67%
    09:00 +23°C° 0 mm 4 mps 750 mmHg 60%
    10:00 +25°C° 0 mm 4 mps 750 mmHg 54%
    11:00 +27°C° 0 mm 4 mps 750 mmHg 47%
    12:00 +27°C° 0 mm 4 mps 749 mmHg 46%
    13:00 +27°C° 0 mm 4 mps 749 mmHg 45%
    14:00 +27°C° 0 mm 4 mps 749 mmHg 45%
    15:00 +27°C° 0 mm 4 mps 749 mmHg 48%
    16:00 +26°C° 0 mm 3 mps 749 mmHg 52%
    17:00 +25°C° 0 mm 3 mps 748 mmHg 56%
    18:00 +24°C° 0 mm 3 mps 748 mmHg 62%
    19:00 +21°C° 0 mm 3 mps 748 mmHg 69%
    20:00 +20°C° 0 mm 2 mps 748 mmHg 75%
    21:00 +19°C° 0 mm 3 mps 748 mmHg 73%
    22:00 +19°C° 0 mm 3 mps 748 mmHg 71%
    23:00 +18°C° 0 mm 3 mps 748 mmHg 69%
    Show more